This demonstration page uses our WeatherBlox Daily Observations layout. Learn more.

Left ArrowRight Arrow

41.55636, -103.73856

Hourly Observations for June 3, 2015

Temp ( °F °C ) Dew Point ( °F °C ) Humidity (%) Winds ( mph kmh ) Pressure ( in mb ) Visibility ( mi km ) Precip ( " mm )
12:53 am 00:53 Mostly Clear 60 15.6 51 10.6 72 72 NNE 7 11 29.79 1009 10 16.0934 0 0
1:53 am 01:53 Clear 60 15.6 51 10.6 72 72 NE 7 11 29.79 1009 10 16.0934 0 0
2:53 am 02:53 Clear 57 13.9 51 10.6 81 81 NE 10 17 29.8 1009 10 16.0934 0 0
3:53 am 03:53 Clear 57 13.9 52 11.1 83 83 NE 6 9 29.82 1010 10 16.0934 0 0
4:53 am 04:53 Clear 55 12.8 52 11.1 90 90 NE 5 7 29.85 1011 10 16.0934 0 0
5:53 am 05:53 Sunny 52 11.1 50 10 93 93 WNW 3 6 29.9 1013 10 16.0934 0 0
6:53 am 06:53 Partly Cloudy 57 13.9 52 11.1 83 83 W 5 7 29.91 1013 10 16.0934 0 0
7:53 am 07:53 Sunny 60 15.6 52 11.1 75 75 W 9 15 29.92 1013 10 16.0934 0 0
8:53 am 08:53 Sunny 64 17.8 53 11.7 68 68 NNW 6 9 29.92 1013 10 16.0934 0 0
9:53 am 09:53 Sunny 67 19.4 52 11.1 59 59 Calm 29.92 1013 10 16.0934 0 0
10:53 am 10:53 Sunny 71 21.7 52 11.1 51 51 VRB 3 6 29.91 1013 10 16.0934 0 0
11:53 am 11:53 Sunny 73 22.8 52 11.1 48 48 SSE 9 15 29.9 1013 10 16.0934 0 0
12:53 pm 12:53 Sunny 75 23.9 55 12.8 50 50 SE 10 17 29.88 1012 10 16.0934 0 0
1:53 pm 13:53 Sunny 76 24.4 54 12.2 47 47 ESE 7 11 29.86 1011 10 16.0934 0 0
2:53 pm 14:53 Sunny 77 25 56 13.3 48 48 SE 16 26 29.84 1011 10 16.0934 0 0
3:53 pm 15:53 Sunny 77 25 57 13.9 50 50 ESE 16 26 29.83 1010 10 16.0934 0 0.0254
4:53 pm 16:53 Sunny 78 25.6 56 13.3 47 47 ESE 17 28 29.82 1010 10 16.0934 0 0
5:53 pm 17:53 Sunny 76 24.4 55 12.8 48 48 ESE 16 26 29.81 1010 10 16.0934 0 0
6:53 pm 18:53 Mostly Cloudy 74 23.3 56 13.3 54 54 SE 21 33 29.82 1010 10 16.0934 0 0
7:53 pm 19:53 Cloudy 72 22.2 56 13.3 57 57 ESE 17 28 29.83 1010 10 16.0934 0 0
8:53 pm 20:53 Cloudy 71 21.7 55 12.8 57 57 ESE 17 28 29.82 1010 10 16.0934 0 0
9:53 pm 21:53 Cloudy 70 21.1 56 13.3 61 61 ESE 18 30 29.84 1010 10 16.0934 0 0
10:53 pm 22:53 Mostly Cloudy 67 19.4 57 13.9 71 71 ESE 15 24 29.8 1009 10 16.0934 0 0
11:53 pm 23:53 Cloudy 66 18.9 57 13.9 73 73 E 15 24 29.82 1010 10 16.0934 0 0

Powered by AerisWeather